カタログに戻る

STARLINK-1451

運用中通信VLEO
NORAD 45668·PAYLOAD·🇺🇸 United States

打ち上げ Jun 4, 2020 から Cape Canaveral Space Force Station

Loading…

次のパス (今後24時間)

TLE

最新Source: CelesTrak SupGP

元期: Sep 14, 2026, 21:03 UTC

1 45668C 20035M   26257.87756944  .00036713  00000+0  17601-2 0  2574
2 45668  53.0501 286.1593 0002156  49.9051 232.2964 15.18371712    16

AllMySatでSTARLINK-1451をリアルタイム追跡

Download on the App Store